TimeCDT,TemperatureF,Dew PointF,Humidity,Sea Level PressureIn,VisibilityMPH,Wind Direction,Wind SpeedMPH,Gust SpeedMPH,PrecipitationIn,Events,Conditions,WindDirDegrees,DateUTC
12:15 AM,-9999,-9999,N/A,29.83,7.0,SSE,3.5,-,N/A,,Clear,150,2013-09-01 05:15:00
12:35 AM,-9999,-9999,N/A,29.84,7.0,Calm,Calm,-,N/A,,Clear,0,2013-09-01 05:35:00
12:55 AM,-9999,-9999,N/A,29.84,7.0,Calm,Calm,-,N/A,,Clear,0,2013-09-01 05:55:00
1:15 AM,-9999,-9999,N/A,29.83,5.0,Calm,Calm,-,N/A,,Haze,0,2013-09-01 06:15:00
1:35 AM,66.9,66.9,100,29.82,2.0,Calm,Calm,-,N/A,,Clear,0,2013-09-01 06:35:00
1:55 AM,67.3,67.3,100,29.82,1.2,East,4.6,-,N/A,,Mist,100,2013-09-01 06:55:00
2:15 AM,67.1,67.1,100,29.82,0.2,ESE,3.5,-,N/A,Fog,Fog,110,2013-09-01 07:15:00
2:35 AM,66.4,66.4,100,29.82,0.2,SE,5.8,-,N/A,Fog,Fog,140,2013-09-01 07:35:00
2:55 AM,66.0,66.0,100,29.80,0.5,SE,9.2,-,N/A,Fog,Fog,140,2013-09-01 07:55:00
3:15 AM,65.8,65.8,100,29.80,5.0,SSE,8.1,-,N/A,,Scattered Clouds,160,2013-09-01 08:15:00
3:35 AM,65.8,65.8,100,29.81,5.0,SE,3.5,-,N/A,,Clear,140,2013-09-01 08:35:00
3:55 AM,65.7,65.7,100,29.80,5.0,South,5.8,-,N/A,,Clear,170,2013-09-01 08:55:00
4:15 AM,65.3,65.3,100,29.81,4.0,SW,3.5,-,N/A,,Scattered Clouds,220,2013-09-01 09:15:00
4:35 AM,65.3,65.3,100,29.80,3.0,South,4.6,-,N/A,,Mostly Cloudy,170,2013-09-01 09:35:00
4:55 AM,64.9,64.9,100,29.80,4.0,South,5.8,-,N/A,,Scattered Clouds,190,2013-09-01 09:55:00
5:15 AM,63.7,63.7,100,29.81,0.5,SSW,6.9,-,N/A,Fog,Fog,200,2013-09-01 10:15:00
5:35 AM,64.0,64.0,100,29.82,4.0,SW,9.2,-,N/A,,Scattered Clouds,230,2013-09-01 10:35:00
5:55 AM,65.3,65.3,100,29.82,5.0,SW,8.1,-,N/A,,Clear,230,2013-09-01 10:55:00
6:15 AM,65.3,65.3,100,29.81,5.0,SW,9.2,-,N/A,,Clear,220,2013-09-01 11:15:00
6:35 AM,66.0,66.0,100,29.81,5.0,WSW,11.5,-,N/A,,Scattered Clouds,240,2013-09-01 11:35:00
6:55 AM,66.6,66.6,100,29.81,0.2,SW,8.1,-,N/A,Fog,Fog,220,2013-09-01 11:55:00
7:15 AM,66.7,66.7,100,29.79,0.2,SW,6.9,-,N/A,Fog,Fog,220,2013-09-01 12:15:00
7:35 AM,67.1,67.1,100,29.79,0.2,SW,6.9,-,N/A,Fog,Fog,230,2013-09-01 12:35:00
7:55 AM,67.5,67.5,100,29.79,0.5,WSW,8.1,-,N/A,Fog,Fog,240,2013-09-01 12:55:00
8:15 AM,68.0,68.0,100,29.80,0.8,WSW,6.9,-,N/A,,Overcast,240,2013-09-01 13:15:00
8:35 AM,68.5,68.5,100,29.80,1.8,West,9.2,-,N/A,,Overcast,260,2013-09-01 13:35:00
8:55 AM,69.4,69.4,100,29.82,4.0,West,9.2,-,N/A,,Overcast,260,2013-09-01 13:55:00
9:15 AM,70.0,70.0,100,29.83,4.0,WSW,9.2,-,N/A,,Overcast,250,2013-09-01 14:15:00
9:35 AM,71.1,71.1,100,29.83,5.0,West,8.1,-,N/A,,Overcast,260,2013-09-01 14:35:00
9:55 AM,71.6,71.6,100,29.83,4.0,West,6.9,-,N/A,,Overcast,260,2013-09-01 14:55:00
10:15 AM,72.3,72.3,100,29.82,5.0,WSW,5.8,-,N/A,,Overcast,240,2013-09-01 15:15:00
10:35 AM,73.6,73.6,100,29.81,7.0,WSW,5.8,-,N/A,,Overcast,240,2013-09-01 15:35:00
10:55 AM,74.3,74.3,100,29.80,7.0,West,6.9,-,N/A,,Overcast,260,2013-09-01 15:55:00
11:15 AM,75.6,75.6,100,29.80,7.0,SW,5.8,-,N/A,,Overcast,230,2013-09-01 16:15:00
11:35 AM,75.2,75.2,100,29.80,7.0,West,5.8,-,N/A,,Overcast,270,2013-09-01 16:35:00
11:55 AM,75.4,75.4,100,29.79,7.0,West,5.8,-,N/A,,Overcast,260,2013-09-01 16:55:00
12:15 PM,77.0,76.5,98,29.78,7.0,WSW,4.6,-,N/A,,Overcast,250,2013-09-01 17:15:00
12:35 PM,78.8,75.7,90,29.78,7.0,WSW,8.1,-,N/A,,Overcast,250,2013-09-01 17:35:00
12:55 PM,80.2,69.6,70,29.78,10.0,SW,8.1,-,N/A,,Overcast,220,2013-09-01 17:55:00
1:15 PM,82.0,68.7,64,29.77,10.0,West,6.9,-,N/A,,Mostly Cloudy,270,2013-09-01 18:15:00
1:35 PM,81.7,68.2,63,29.77,10.0,West,5.8,-,N/A,,Overcast,280,2013-09-01 18:35:00
1:55 PM,83.5,67.8,59,29.77,10.0,WSW,9.2,-,N/A,,Mostly Cloudy,240,2013-09-01 18:55:00
2:15 PM,84.6,66.2,54,29.77,10.0,West,6.9,-,N/A,,Mostly Cloudy,270,2013-09-01 19:15:00
2:35 PM,84.0,65.8,54,29.77,10.0,West,11.5,-,N/A,,Overcast,260,2013-09-01 19:35:00
2:55 PM,84.2,66.2,55,29.76,10.0,West,10.4,-,N/A,,Overcast,270,2013-09-01 19:55:00
3:15 PM,83.7,65.3,54,29.76,10.0,WNW,10.4,-,N/A,,Mostly Cloudy,290,2013-09-01 20:15:00
3:35 PM,83.8,65.3,53,29.75,10.0,WNW,5.8,-,N/A,,Scattered Clouds,300,2013-09-01 20:35:00
3:55 PM,83.8,65.5,54,29.75,10.0,West,5.8,-,N/A,,Mostly Cloudy,270,2013-09-01 20:55:00
4:15 PM,82.6,66.4,58,29.75,10.0,NW,3.5,-,N/A,Rain,Light Rain,320,2013-09-01 21:15:00
4:35 PM,81.0,68.4,65,29.75,2.5,WSW,3.5,-,0.07,Rain,Heavy Rain,240,2013-09-01 21:35:00
4:55 PM,81.3,68.4,65,29.75,10.0,WNW,9.2,-,0.08,,Mostly Cloudy,290,2013-09-01 21:55:00
5:15 PM,81.5,67.5,62,29.76,10.0,NW,8.1,-,N/A,,Mostly Cloudy,310,2013-09-01 22:15:00
5:35 PM,83.3,62.6,50,29.76,10.0,WNW,17.3,20.7,N/A,,Overcast,300,2013-09-01 22:35:00
5:55 PM,82.4,61.0,48,29.77,10.0,NW,9.2,23.0,N/A,,Scattered Clouds,320,2013-09-01 22:55:00
6:15 PM,81.5,59.0,46,29.78,10.0,NW,13.8,19.6,N/A,,Clear,310,2013-09-01 23:15:00
6:35 PM,80.8,58.3,46,29.78,10.0,NW,5.8,-,N/A,,Clear,320,2013-09-01 23:35:00
6:55 PM,79.0,58.1,49,29.79,10.0,NW,8.1,-,N/A,,Clear,320,2013-09-01 23:55:00
7:15 PM,77.9,59.0,52,29.80,10.0,NW,9.2,18.4,N/A,,Clear,320,2013-09-02 00:15:00
7:35 PM,76.3,59.2,55,29.80,10.0,NW,9.2,16.1,N/A,,Clear,320,2013-09-02 00:35:00
7:55 PM,75.2,59.2,57,29.81,10.0,NW,9.2,-,N/A,,Clear,320,2013-09-02 00:55:00
8:15 PM,73.8,59.2,60,29.81,10.0,NW,9.2,-,N/A,,Clear,320,2013-09-02 01:15:00
8:35 PM,72.9,59.0,62,29.82,10.0,NW,8.1,-,N/A,,Clear,320,2013-09-02 01:35:00
8:55 PM,72.0,58.6,63,29.83,10.0,NW,8.1,-,N/A,,Clear,320,2013-09-02 01:55:00
9:15 PM,70.9,59.0,66,29.84,10.0,NNW,4.6,-,N/A,,Clear,330,2013-09-02 02:15:00
9:35 PM,69.8,58.6,68,29.84,10.0,NNW,4.6,-,N/A,,Clear,330,2013-09-02 02:35:00
9:55 PM,69.1,58.6,69,29.85,10.0,NNW,4.6,-,N/A,,Clear,330,2013-09-02 02:55:00
10:15 PM,68.5,59.0,72,29.86,10.0,NW,4.6,-,N/A,,Clear,320,2013-09-02 03:15:00
10:35 PM,67.6,58.8,73,29.86,10.0,NW,5.8,-,N/A,,Clear,310,2013-09-02 03:35:00
10:55 PM,68.0,58.5,71,29.86,10.0,NW,8.1,-,N/A,,Clear,310,2013-09-02 03:55:00
11:15 PM,68.0,57.9,70,29.87,10.0,NW,6.9,-,N/A,,Clear,320,2013-09-02 04:15:00
11:35 PM,67.1,58.1,73,29.87,10.0,NW,8.1,-,N/A,,Clear,310,2013-09-02 04:35:00
11:55 PM,66.2,61.7,85,29.86,10.0,NW,8.1,-,N/A,,Clear,310,2013-09-02 04:55:00